• In Hungary
  • List of Countries
  • For 7 days
  • Water Temperature
  • Satellite Maps
  • Weather Map
  • News
  • Weather Widgets
  • user-avatar
    Login

    Hourly Weather Kaclowa

    Today, 23 October, Tuesday

    Time Temperature Precipitation Wind Pressure Humidity
    00:00 +7°C° 0.1 mm 2 mps 733 mmHg 80%
    01:00 +7°C° 0.1 mm 2 mps 733 mmHg 81%
    02:00 +7°C° 0.1 mm 2 mps 733 mmHg 83%
    03:00 +7°C° 0.1 mm 3 mps 733 mmHg 85%
    04:00 +7°C° 0.1 mm 3 mps 733 mmHg 87%
    05:00 +5°C° 0 mm 3 mps 732 mmHg 87%
    06:00 +5°C° 0 mm 3 mps 732 mmHg 87%
    07:00 +6°C° 0 mm 2 mps 732 mmHg 88%
    08:00 +7°C° 0 mm 3 mps 731 mmHg 79%
    09:00 +8°C° 0 mm 3 mps 731 mmHg 71%
    10:00 +8°C° 0 mm 4 mps 730 mmHg 63%
    11:00 +10°C° 0.1 mm 4 mps 729 mmHg 60%
    12:00 +10°C° 0.1 mm 4 mps 728 mmHg 58%
    13:00 +11°C° 0.1 mm 4 mps 727 mmHg 55%
    14:00 +9°C° 0.4 mm 5 mps 727 mmHg 60%
    15:00 +8°C° 0.4 mm 5 mps 726 mmHg 64%
    16:00 +7°C° 0.4 mm 5 mps 725 mmHg 69%
    17:00 +7°C° 0.1 mm 6 mps 724 mmHg 71%
    18:00 +7°C° 0.1 mm 6 mps 724 mmHg 74%
    19:00 +7°C° 0.1 mm 6 mps 723 mmHg 76%
    20:00 +7°C° 0.2 mm 6 mps 722 mmHg 77%
    21:00 +7°C° 0.2 mm 6 mps 721 mmHg 79%
    22:00 +7°C° 0.2 mm 6 mps 721 mmHg 80%
    23:00 +7°C° 0.8 mm 6 mps 720 mmHg 81%

    Tomorrow, 24 October, Wednesday

    Time Temperature Precipitation Wind Pressure Humidity
    00:00 +8°C° 0.8 mm 6 mps 719 mmHg 83%
    01:00 +8°C° 0.8 mm 7 mps 718 mmHg 84%
    02:00 +8°C° 1.1 mm 7 mps 717 mmHg 84%
    03:00 +8°C° 1.1 mm 7 mps 716 mmHg 85%
    04:00 +9°C° 1.1 mm 8 mps 715 mmHg 85%
    05:00 +7°C° 1.9 mm 8 mps 715 mmHg 82%
    06:00 +5°C° 1.9 mm 8 mps 715 mmHg 79%
    07:00 +4°C° 1.9 mm 8 mps 715 mmHg 76%
    08:00 +4°C° 0.4 mm 8 mps 716 mmHg 72%
    09:00 +3°C° 0.4 mm 9 mps 717 mmHg 67%
    10:00 +2°C° 0.4 mm 9 mps 718 mmHg 62%
    11:00 +2°C° 0.1 mm 9 mps 718 mmHg 59%
    12:00 +3°C° 0.1 mm 9 mps 719 mmHg 55%
    13:00 +3°C° 0.1 mm 9 mps 719 mmHg 52%
    14:00 +4°C° 0 mm 8 mps 720 mmHg 52%
    15:00 +2°C° 0 mm 8 mps 720 mmHg 52%
    16:00 +3°C° 0 mm 7 mps 720 mmHg 53%
    17:00 +3°C° 0 mm 7 mps 721 mmHg 54%
    18:00 +2°C° 0 mm 7 mps 722 mmHg 56%
    19:00 +2°C° 0 mm 7 mps 722 mmHg 57%
    20:00 +2°C° 0 mm 7 mps 723 mmHg 58%
    21:00 0°C° 0 mm 7 mps 723 mmHg 60%
    22:00 0°C° 0 mm 7 mps 724 mmHg 61%
    23:00 +1°C° 0 mm 6 mps 724 mmHg 64%

    Day after tomorrow, 25 October, Thursday

    Time Temperature Precipitation Wind Pressure Humidity
    00:00 +1°C° 0 mm 6 mps 725 mmHg 67%
    01:00 +1°C° 0 mm 6 mps 725 mmHg 70%
    02:00 -1°C° 0 mm 6 mps 725 mmHg 72%
    03:00 0°C° 0 mm 5 mps 725 mmHg 75%
    04:00 0°C° 0 mm 5 mps 725 mmHg 77%
    05:00 0°C° 0 mm 5 mps 725 mmHg 77%
    06:00 0°C° 0 mm 4 mps 725 mmHg 77%
    07:00 0°C° 0 mm 4 mps 725 mmHg 77%
    08:00 +1°C° 0.3 mm 4 mps 725 mmHg 76%
    09:00 +3°C° 0.3 mm 4 mps 724 mmHg 75%
    10:00 +4°C° 0.3 mm 4 mps 724 mmHg 73%
    11:00 +5°C° 0.8 mm 5 mps 723 mmHg 76%
    12:00 +6°C° 0.8 mm 5 mps 722 mmHg 79%
    13:00 +7°C° 0.8 mm 6 mps 722 mmHg 82%
    14:00 +7°C° 0.5 mm 6 mps 721 mmHg 82%
    15:00 +7°C° 0.5 mm 6 mps 721 mmHg 83%
    16:00 +8°C° 0.5 mm 6 mps 721 mmHg 84%
    17:00 +7°C° 0.4 mm 6 mps 721 mmHg 85%
    18:00 +7°C° 0.4 mm 6 mps 722 mmHg 85%
    19:00 +6°C° 0.4 mm 5 mps 722 mmHg 86%
    20:00 +6°C° 0.1 mm 5 mps 723 mmHg 86%
    21:00 +5°C° 0.1 mm 5 mps 723 mmHg 86%
    22:00 +5°C° 0.1 mm 5 mps 724 mmHg 86%
    23:00 +4°C° 0 mm 4 mps 724 mmHg 87%

    26 October, Friday

    Time Temperature Precipitation Wind Pressure Humidity
    00:00 +4°C° 0 mm 4 mps 724 mmHg 88%
    01:00 +3°C° 0 mm 4 mps 724 mmHg 89%
    02:00 +3°C° 0 mm 3 mps 725 mmHg 89%
    03:00 +3°C° 0 mm 3 mps 725 mmHg 90%
    04:00 +3°C° 0 mm 2 mps 725 mmHg 91%
    05:00 +4°C° 0 mm 2 mps 725 mmHg 91%
    06:00 +4°C° 0 mm 2 mps 725 mmHg 90%
    07:00 +4°C° 0 mm 2 mps 726 mmHg 90%
    08:00 +4°C° 0 mm 3 mps 726 mmHg 83%
    09:00 +7°C° 0 mm 3 mps 726 mmHg 77%
    10:00 +9°C° 0 mm 3 mps 726 mmHg 71%
    11:00 +10°C° 0 mm 3 mps 726 mmHg 70%
    12:00 +10°C° 0 mm 3 mps 725 mmHg 69%
    13:00 +11°C° 0 mm 3 mps 725 mmHg 69%
    14:00 +10°C° 0 mm 3 mps 725 mmHg 72%
    15:00 +10°C° 0 mm 2 mps 724 mmHg 75%
    16:00 +9°C° 0 mm 2 mps 724 mmHg 79%
    17:00 +8°C° 0 mm 2 mps 724 mmHg 81%
    18:00 +8°C° 0 mm 3 mps 724 mmHg 84%
    19:00 +7°C° 0 mm 3 mps 724 mmHg 87%
    20:00 +8°C° 0 mm 3 mps 723 mmHg 86%
    21:00 +8°C° 0 mm 3 mps 723 mmHg 86%
    22:00 +7°C° 0 mm 4 mps 723 mmHg 85%
    23:00 +7°C° 0 mm 4 mps 722 mmHg 86%

    27 October, Saturday

    Time Temperature Precipitation Wind Pressure Humidity
    00:00 +7°C° 0 mm 4 mps 722 mmHg 86%
    01:00 +7°C° 0 mm 4 mps 722 mmHg 87%
    02:00 +7°C° 0 mm 4 mps 721 mmHg 88%
    03:00 +7°C° 0 mm 4 mps 721 mmHg 88%
    04:00 +7°C° 0 mm 4 mps 720 mmHg 89%
    05:00 +8°C° 0 mm 3 mps 720 mmHg 90%
    06:00 +8°C° 0 mm 3 mps 720 mmHg 91%
    07:00 +8°C° 0 mm 3 mps 720 mmHg 92%
    08:00 +10°C° 0.1 mm 3 mps 720 mmHg 88%
    09:00 +11°C° 0.1 mm 3 mps 720 mmHg 85%
    10:00 +12°C° 0.1 mm 3 mps 720 mmHg 81%
    11:00 +13°C° 1.2 mm 2 mps 719 mmHg 84%
    12:00 +13°C° 1.2 mm 2 mps 719 mmHg 88%
    13:00 +12°C° 1.2 mm 2 mps 719 mmHg 91%
    14:00 +12°C° 2.3 mm 2 mps 718 mmHg 92%
    15:00 +10°C° 2.3 mm 3 mps 718 mmHg 92%
    16:00 +10°C° 2.3 mm 3 mps 718 mmHg 93%
    17:00 +9°C° 2.2 mm 3 mps 718 mmHg 94%
    18:00 +8°C° 2.2 mm 2 mps 718 mmHg 95%
    19:00 +8°C° 2.2 mm 2 mps 718 mmHg 96%
    20:00 +7°C° 1.5 mm 2 mps 718 mmHg 95%
    21:00 +7°C° 1.5 mm 2 mps 718 mmHg 95%
    22:00 +7°C° 1.5 mm 2 mps 718 mmHg 95%
    23:00 +7°C° 2.1 mm 2 mps 717 mmHg 95%

    28 October, Sunday

    Time Temperature Precipitation Wind Pressure Humidity
    00:00 +7°C° 2.1 mm 2 mps 717 mmHg 95%
    01:00 +7°C° 2.1 mm 2 mps 717 mmHg 95%
    02:00 +7°C° 2.3 mm 2 mps 716 mmHg 94%
    03:00 +5°C° 2.3 mm 3 mps 716 mmHg 94%
    04:00 +5°C° 2.3 mm 3 mps 715 mmHg 94%
    05:00 +6°C° 2 mm 2 mps 715 mmHg 93%
    06:00 +6°C° 2 mm 2 mps 715 mmHg 93%
    07:00 +6°C° 2 mm 2 mps 716 mmHg 93%
    08:00 +6°C° 0.2 mm 2 mps 716 mmHg 90%
    09:00 +7°C° 0.2 mm 2 mps 717 mmHg 87%
    10:00 +8°C° 0.2 mm 2 mps 718 mmHg 84%
    11:00 +8°C° 0 mm 3 mps 718 mmHg 82%
    12:00 +8°C° 0 mm 3 mps 719 mmHg 79%
    13:00 +8°C° 0 mm 4 mps 720 mmHg 77%
    14:00 +8°C° 0.1 mm 3 mps 721 mmHg 79%
    15:00 +7°C° 0.1 mm 3 mps 722 mmHg 82%
    16:00 +5°C° 0.1 mm 3 mps 723 mmHg 85%
    17:00 +5°C° 0 mm 2 mps 723 mmHg 87%
    18:00 +6°C° 0 mm 1 mps 724 mmHg 88%
    19:00 +5°C° 0 mm 1 mps 725 mmHg 90%
    20:00 +5°C° 0 mm 1 mps 725 mmHg 91%
    21:00 +4°C° 0 mm 1 mps 726 mmHg 92%
    22:00 +3°C° 0 mm 0 mps 726 mmHg 92%
    23:00 +3°C° 0 mm 0 mps 726 mmHg 92%
    Show more